Weather History for KMSS - March, 2014

Change the Weather History Date:

Tuesday, March 18, 2014

  Actual Average Record
Temperature  
Mean Temperature 14 °F 29 °F  
Max Temperature 28 °F 38 °F 78 °F (2012)
Min Temperature -1 °F 19 °F -10 °F (1993)
Degree Days  
Heating Degree Days 51 36  
Month to date heating degree days 911 719  
Since 1 July heating degree days 7080 6706  
Cooling Degree Days 0 0  
Month to date cooling degree days 0 0  
Year to date cooling degree days 0 0  
Moisture  
Dew Point 2 °F    
Average Humidity 59    
Maximum Humidity 79    
Minimum Humidity 38    
Precipitation  
Precipitation 0.00 in 0.07 in 0.34 in (1980)
Month to date precipitation 0.18 1.17  
Year to date precipitation 2.92 5.12  
Sea Level Pressure  
Sea Level Pressure 30.31 in    
Wind  
Wind Speed 9 mph (ENE)    
Max Wind Speed 16 mph    
Max Gust Speed 19 mph    
Visibility 10 miles    
Events      
T = Trace of Precipitation, MM = Missing Value Source: NWS Daily Summary

Daily Weather History Graph

Daily Weather History Graph

Search for Another Location

Airport or City:

Trip Planner

Search our weather history database for the weather conditions in past years. The results will help you decide how hot, cold, wet, or windy it might be!

Date:

Astronomy

Mar. 18, 2014 Rise Set
Actual Time 7:06 AM EDT 7:09 PM EDT
Civil Twilight 6:37 AM EDT 7:38 PM EDT
Nautical Twilight 6:02 AM EDT 8:12 PM EDT
Astronomical Twilight 5:27 AM EDT 8:47 PM EDT
Moon 9:31 PM EDT (3/18) 7:48 AM EDT (3/18)
Length of Visible Light 13h 01m
Length of Day
12h 03m
Waning Gibbous, 96% of the Moon is Illuminated
Mar 18
Waning Gibbous
Mar 23
Last Quarter
Mar 30
New
Apr 7
First Quarter
Apr 15
Full

Hourly Weather History & Observations

Time (EDT) Temp. Windchill Dew Point Humidity Pressure Visibility Wind Dir Wind Speed Gust Speed Precip Events Conditions
12:53 AM 3.9 °F - -2.9 °F 73% 30.24 in 10.0 mi Calm Calm - N/A   Clear
1:53 AM 3.9 °F - -4.0 °F 70% 30.25 in 10.0 mi Calm Calm - N/A   Clear
2:53 AM 1.9 °F - -4.0 °F 76% 30.26 in 10.0 mi Calm Calm - N/A   Clear
3:53 AM -0.0 °F - -6.0 °F 76% 30.26 in 10.0 mi Calm Calm - N/A   Clear
4:53 AM 1.0 °F -6.7 °F -6.0 °F 72% 30.27 in 10.0 mi NE 3.5 mph - N/A   Clear
5:53 AM 1.9 °F - -4.0 °F 76% 30.28 in 10.0 mi Calm Calm - N/A   Clear
6:53 AM 3.9 °F - -2.0 °F 76% 30.30 in 10.0 mi Calm Calm - N/A   Clear
7:53 AM 8.1 °F 1.4 °F -0.9 °F 67% 30.32 in 10.0 mi East 3.5 mph - N/A   Overcast
8:53 AM 12.9 °F 2.6 °F -0.0 °F 56% 30.33 in 10.0 mi ENE 6.9 mph - N/A   Clear
9:53 AM 18.0 °F 3.6 °F -0.0 °F 45% 30.34 in 10.0 mi ENE 15.0 mph - N/A   Clear
10:53 AM 21.0 °F 8.6 °F 1.9 °F 44% 30.32 in 10.0 mi ENE 12.7 mph - N/A   Clear
11:53 AM 23.0 °F 11.7 °F 3.0 °F 42% 30.33 in 10.0 mi ENE 11.5 mph - N/A   Partly Cloudy
12:53 PM 25.0 °F 12.2 °F 3.0 °F 39% 30.31 in 10.0 mi ENE 16.1 mph - N/A   Mostly Cloudy
1:53 PM 27.0 °F 16.1 °F 5.0 °F 39% 30.32 in 10.0 mi ENE 12.7 mph - N/A   Partly Cloudy
2:53 PM 27.0 °F 15.6 °F 7.0 °F 43% 30.32 in 10.0 mi NE 13.8 mph - N/A   Clear
3:53 PM 28.0 °F 17.5 °F 7.0 °F 41% 30.33 in 10.0 mi ENE 12.7 mph - N/A   Clear
4:53 PM 27.0 °F 15.6 °F 8.1 °F 45% 30.32 in 10.0 mi NNE 13.8 mph - N/A   Clear
5:53 PM 26.1 °F 15.0 °F 8.1 °F 47% 30.33 in 10.0 mi NE 12.7 mph - N/A   Overcast
6:53 PM 25.0 °F 13.1 °F 6.1 °F 45% 30.33 in 10.0 mi ENE 13.8 mph - N/A   Overcast
7:53 PM 24.1 °F 13.7 °F 7.0 °F 48% 30.33 in 10.0 mi ENE 10.4 mph - N/A   Mostly Cloudy
8:53 PM 23.0 °F 12.4 °F 6.1 °F 48% 30.33 in 10.0 mi ENE 10.4 mph - N/A   Mostly Cloudy
9:53 PM 21.0 °F 10.6 °F 7.0 °F 55% 30.32 in 10.0 mi NE 9.2 mph - N/A   Partly Cloudy
10:53 PM 21.0 °F 9.9 °F 6.1 °F 53% 30.30 in 10.0 mi NE 10.4 mph - N/A   Clear
11:53 PM 19.9 °F 6.2 °F 6.1 °F 55% 30.29 in 10.0 mi ENE 15.0 mph - N/A   Clear